LEMUR-2-LIU-POU-CHUN (43054 NORAD) Tracking and Keplerian Element Data

This shows tracking and keplerian element data for the satellite.

Feedback or suggestion? Click here.




ElementValue
Catalog43054
NameLEMUR-2-LIU-POU-CHUN
Epoch Orbit24057
Epoch Day67.33964858
Epoch Year2022
RAAN139.2293
Inclination51.6066
Eccentricity0.0003296
Argument of Perigee268.6655
Mean Anonmoly91.3996
Mean Motion16.44325644
Decay Rate0.15431095
L11 43054U 17071T 22067.33964858 .15431095 12518-4 55689-3 0 9990
L22 43054 51.6066 139.2293 0003296 268.6655 91.3996 16.44325644240573

Live tracking and technical data element details for LEMUR-2-LIU-POU-CHUN (NORAD 43054). LEMUR-2-LIU-POU-CHUN can be tracked NOW for your location showing map with azimuth and elevation plus other details from your city location.

Track the satellite on the map from your city or location and see movement details for azimuth, elevation, latitude, longitude, range, height, and movement on the map or in text.







IsCatalogInMostPopularTable: catalog: 43054, numindb: 586
Update: records affected: 1



GetName: 43054 LEMUR-2-LIU-POU-CHUN

Hit Count: updated at: Thu, 29 Sep 2022 12:04:23 GMT